Погода в Саловке

Россия / Пензенская область     53°06′17″N   44°47′28″E
темп.,
°C
ветер,
м/с
пор.,
м/с
влажн.,
%
обл.,
%
осадки,
мм/ч
давл.,
гПа
погр.,
м
22 мая, вс
вс2200:00+6ю2365100 0.0 100768
03:00+6ююз3667100 0.0 1005111
06:00+7ю3673100 0.0 1002174
09:00+12ююв225770 0.0 1000893
12:00+12всв2251100 0.2 9991547
15:00+13св3355100 0.4 9981328
18:00+11ссв696777 0.4 998577
21:00+7св51068100 0.4 999387
23 мая, пн
пн2300:00+6ссв4870100 0.0 999388
03:00+2с37835 0.0 1000183
06:00+3с57745 0.0 1001357
09:00+7ссз555820 0.0 10021182
12:00+8сз5552100 0.0 10021729
15:00+7сз6655100 0.0 10041387
18:00+6зсз576296 0.1 10051188
21:00+3з357537 0.1 100596
24 мая, вт
вт2400:00+2юз49825 0.0 1006177
03:00+2юз513825 0.0 1005298
06:00+4зюз511805 0.0 1005334
09:00+10з7105699 0.0 10051215
12:00+12зюз694480 0.0 10052226
15:00+12зсз7954100 0.1 10051732
18:00+7з3676100 0.4 1008869
21:00+5сз368772 0.6 1009143
25 мая, ср
ср2500:00+3зсз369231 0.0 1010136
03:00+1ссз35945 0.0 1011114
06:00+3ссз46775 0.0 1013312
09:00+7ссз455966 0.0 10131352
12:00+8сз4556100 0.1 10141340
15:00+9сз565487 0.2 10141731
18:00+8сз4566100 0.1 10151110
21:00+4зсз36825 0.3 101691
26 мая, чт
чт2600:00+3з338574 0.0 101638
03:00+2з338676 0.0 101661
06:00+5зюз35795 0.0 1016217
09:00+9юз455980 0.0 1014979
12:00+13юз5757100 0.0 10121427
15:00+14юз797141 0.0 10101219
18:00+14юз61280100 1.3 1007559
21:00+12зюз31092100 1.9 1006315